Kissimmee, FL

10:32 PM EDT on June 23, 2018 (GMT -0400)
Kissimmee Municipal

Weather History for KISM - August, 2017

Change the Weather History Date:

Thursday, August 17, 2017

  Actual Average Record
Temperature  
Mean Temperature 84 °F -  
Max Temperature 93 °F 92 °F 96 °F (1984)
Min Temperature 75 °F 72 °F 70 °F (1962)
Cooling Degree Days 19    
Growing Degree Days 34 (Base 50)    
Moisture  
Dew Point 75 °F    
Average Humidity 85    
Maximum Humidity 97    
Minimum Humidity 57    
Precipitation  
Precipitation 0.27 in - - ()
Sea Level Pressure  
Sea Level Pressure 30.08 in    
Wind  
Wind Speed 2 mph (SSW)    
Max Wind Speed 20 mph    
Max Gust Speed 21 mph    
Visibility 10 miles    
Events Rain , Thunderstorm    
Averages and records for this station are not official NWS values.
T = Trace of Precipitation, MM = Missing Value Source: NWS Daily Summary

Daily Weather History Graph

Daily Weather History Graph

Search for Another Location

Airport or City:

Astronomy

Aug. 17, 2017 Rise Set
Actual Time 6:56 AM EDT 8:02 PM EDT
Civil Twilight 6:32 AM EDT 8:26 PM EDT
Nautical Twilight 6:03 AM EDT 8:55 PM EDT
Astronomical Twilight 5:33 AM EDT 9:25 PM EDT
Moon 2:36 AM EDT (8/17) 4:33 PM EDT (8/17)
Length of Visible Light 13h 54m
Length of Day
13h 05m
Waning Crescent, 22% of the Moon is Illuminated
Aug 17
Waning Crescent
Aug 21
New
Aug 29
First Quarter
Sep 6
Full
Sep 13
Last Quarter

Hourly Weather History & Observations

Time (EDT) Temp. Heat Index Dew Point Humidity Pressure Visibility Wind Dir Wind Speed Gust Speed Precip Events Conditions
12:56 AM 75.9 °F - 75.0 °F 97% 30.10 in 10.0 mi Calm Calm - N/A   Clear
1:56 AM 75.9 °F - 75.0 °F 97% 30.09 in 10.0 mi Calm Calm - N/A   Clear
2:56 AM 77.0 °F - 75.0 °F 94% 30.09 in 10.0 mi Calm Calm - N/A   Clear
3:56 AM 75.9 °F - 75.0 °F 97% 30.08 in 10.0 mi Calm Calm - N/A   Mostly Cloudy
4:27 AM 77.0 °F - 75.2 °F 94% 30.07 in 10.0 mi Calm Calm - N/A   Scattered Clouds
4:56 AM 75.9 °F - 75.0 °F 97% 30.07 in 10.0 mi Calm Calm - N/A   Clear
5:56 AM 77.0 °F - 75.0 °F 94% 30.09 in 10.0 mi Calm Calm - N/A   Partly Cloudy
6:56 AM 75.9 °F - 75.0 °F 97% 30.11 in 10.0 mi Calm Calm - N/A   Clear
7:56 AM 78.1 °F - 75.9 °F 93% 30.11 in 10.0 mi Calm Calm - N/A   Clear
8:56 AM 82.0 °F 90.2 °F 77.0 °F 85% 30.12 in 10.0 mi SW 3.5 mph - N/A   Clear
9:56 AM 84.9 °F 95.3 °F 77.0 °F 77% 30.12 in 10.0 mi West 3.5 mph - N/A   Clear
10:56 AM 87.1 °F 98.8 °F 77.0 °F 72% 30.11 in 8.0 mi Calm Calm - N/A   Scattered Clouds
11:56 AM 89.1 °F 100.2 °F 75.9 °F 65% 30.11 in 10.0 mi Calm Calm - N/A   Mostly Cloudy
12:56 PM 91.0 °F 102.9 °F 75.9 °F 61% 30.09 in 10.0 mi WSW 6.9 mph - N/A   Mostly Cloudy
1:56 PM 91.0 °F 100.4 °F 73.9 °F 57% 30.08 in 10.0 mi East 4.6 mph - N/A   Partly Cloudy
2:56 PM 91.0 °F 104.2 °F 77.0 °F 63% 30.04 in 10.0 mi South 6.9 mph - N/A   Mostly Cloudy
3:56 PM 93.0 °F 106.7 °F 77.0 °F 59% 30.03 in 10.0 mi SSE 8.1 mph - N/A   Mostly Cloudy
4:35 PM 91.4 °F 102.5 °F 75.2 °F 59% 30.01 in 10.0 mi WNW 16.1 mph 20.7 mph N/A Thunderstorm Clear
4:56 PM 81.0 °F 86.7 °F 75.0 °F 82% 30.01 in 10.0 mi WNW 19.6 mph - 0.00 in Rain , Thunderstorm Light Thunderstorms and Rain
5:56 PM 78.1 °F - 75.9 °F 93% 30.04 in 10.0 mi NE 5.8 mph - 0.19 in Rain , Thunderstorm Thunderstorms and Rain
6:47 PM 77.0 °F - 75.2 °F 94% 30.04 in 10.0 mi NE 6.9 mph - 0.05 in Rain , Thunderstorm Light Rain
6:56 PM 77.0 °F - 75.0 °F 94% 30.05 in 10.0 mi NE 4.6 mph - 0.05 in Rain , Thunderstorm Light Rain
7:07 PM 78.8 °F - 75.2 °F 89% 30.05 in 10.0 mi South 8.1 mph - 0.00 in Rain Rain
7:56 PM 77.0 °F - 75.0 °F 94% 30.07 in 10.0 mi South 4.6 mph - 0.03 in Rain Light Rain
8:56 PM 77.0 °F - 75.0 °F 94% 30.08 in 10.0 mi South 3.5 mph - 0.00 in   Clear
9:56 PM 77.0 °F - 75.0 °F 94% 30.10 in 10.0 mi SSW 4.6 mph - N/A   Clear
10:56 PM 75.9 °F - 75.0 °F 97% 30.09 in 10.0 mi Calm Calm - N/A   Clear
11:56 PM 75.9 °F - 73.9 °F 94% 30.08 in 10.0 mi Calm Calm - N/A   Clear